Weather in Khujand

Tajikistan     40°17′00″N   69°37′26″E
temp.,
°C
wind,
m/s
gust,
m/s
humid.,
%
clouds,
%
prec.,
mm/h
press.,
hPa
HPBL,
m
25 july, sun
sun2523:00+30wsw22170 0.0 100233
02:00+28w33190 0.0 100323
05:00+26wnw23210 0.0 100419
08:00+31w23160 0.0 1005290
11:00+38w22110 0.0 1004892
14:00+42nw1390 0.0 10022723
17:00+43nnw1280 0.0 10002925
20:00+36w33110 0.0 100013
26 july, mon
mon2623:00+32wsw33130 0.0 100125
02:00+29wnw33150 0.0 100115
05:00+27wnw33190 0.0 100322
08:00+32w46150 0.0 1004537
11:00+39w56100 0.0 10021242
14:00+43wnw4580 0.0 9992169
17:00+43nw2470 0.0 9982723
20:00+37nnw511120 0.0 999214
27 july, tue
tue2723:00+32wsw510170 0.0 1000149
02:00+29w33260 0.0 100139
05:00+27wsw48340 0.0 1003156
08:00+30w68240 0.0 1004792
11:00+35w67160 0.0 10021162
14:00+39w66130 0.0 9992015
17:00+41w56120 0.0 9962997
20:00+34wnw34170 0.0 99749
28 july, wed
wed2823:00+29wsw58240 0.0 999146
02:00+27w34280 0.0 100051
05:00+24w35310 0.0 100172
08:00+28w57220 0.0 1002671
11:00+33wnw56180 0.0 10011134
14:00+37w66140 0.0 9981829
17:00+38w66120 0.0 9972236
20:00+32w46140 0.0 99982
29 july, thu
thu2923:00+27wsw47200 0.0 100099
02:00+26wnw33212 0.0 100125
05:00+23w332294 0.0 100245
08:00+27wnw56170 0.0 1003600
11:00+33wnw56140 0.0 10021116
14:00+37wnw56115 0.0 10002326
17:00+37wnw7795 0.0 10002798
20:00+32nw61113100 0.0 1002300